DateTimeUTC,F1_A11,F1_S11,BsB_S11,BsG_S11,BsR_S11,BbsB_S11,BbsG_S11,BbsR_S11,BaB_A11,BaG_A11,BaR_A11,Tu_S11,T_S11,Uu_S11,U_S11,P_S11,T1_A11
2021-08-06T22:00:00Z,00000200,20000000,,,,,,,0000.21,-000.19,0000.51,18.6,25.6,02.0,01.3,0666.3,31.0
2021-08-06T22:01:00Z,00000200,20000000,,,,,,,-000.24,-000.20,-000.60,18.6,25.7,02.0,01.3,0666.3,31.0
2021-08-06T22:02:00Z,00000200,20000000,,,,,,,-000.07,0000.19,0000.40,18.6,25.7,02.0,01.3,0666.3,31.0
2021-08-06T22:03:00Z,00000200,60000000,,,,,,,0001.43,0001.00,0001.26,18.6,25.7,02.0,01.3,0666.3,31.1
2021-08-06T22:04:00Z,00000200,41000000,0006.42,0004.77,0002.78,0000.86,0000.42,0000.34,0001.50,0001.21,0000.60,18.7,25.5,02.1,01.4,0667.2,31.0
2021-08-06T22:05:00Z,00000200,00000000,0006.49,0004.90,0002.65,0000.99,0000.46,0000.34,0001.13,0001.59,0001.21,18.8,25.4,02.2,01.5,0667.3,31.0
2021-08-06T22:06:00Z,00000200,00000000,0006.07,0004.59,0002.73,0001.18,0000.63,0000.36,0001.91,0001.24,0000.94,18.8,25.4,02.2,01.5,0667.3,31.0
2021-08-06T22:07:00Z,00000200,00000000,0006.57,0004.72,0002.67,0001.02,0000.29,0000.31,0001.64,0001.49,0001.29,18.8,25.4,02.4,01.6,0667.3,31.0
2021-08-06T22:08:00Z,00000200,00000000,0006.63,0005.07,0002.73,0000.98,0001.00,0000.29,0001.62,0001.48,0001.12,18.8,25.3,02.2,01.5,0667.3,31.0
2021-08-06T22:09:00Z,00000200,00000000,0006.52,0004.66,0003.18,0000.75,0000.19,0000.41,0001.29,0001.51,0000.96,18.8,25.4,02.2,01.5,0667.3,31.0
2021-08-06T22:10:00Z,00000200,00000000,0005.70,0004.88,0002.86,0000.71,0000.42,0000.12,0002.02,0001.58,0001.70,19.0,25.4,02.2,01.5,0667.3,31.1
2021-08-06T22:11:00Z,00000200,00000000,0006.50,0005.06,0002.64,0000.61,0000.61,0000.37,0001.48,0001.51,0000.58,19.0,25.5,02.4,01.6,0667.3,31.1
2021-08-06T22:12:00Z,00000200,00000000,0005.97,0004.94,0002.85,0000.55,0000.68,0000.35,0002.36,0002.30,0002.34,19.1,25.5,02.4,01.6,0667.3,31.1
2021-08-06T22:13:00Z,00000200,00000000,0005.77,0005.20,0002.84,0000.33,0000.36,0000.35,0000.45,0000.04,-000.29,19.1,25.5,02.5,01.7,0667.3,31.1
2021-08-06T22:14:00Z,00000200,00000000,0006.61,0004.80,0002.48,0001.08,0000.54,-000.26,0002.22,0002.50,0001.68,19.1,25.5,02.4,01.6,0667.3,31.1
2021-08-06T22:15:00Z,00000200,00000000,0006.78,0005.11,0003.15,0000.62,0000.35,0000.61,0001.62,0001.00,0001.38,19.0,25.5,02.6,01.7,0667.3,31.1
2021-08-06T22:16:00Z,00000200,00000000,0006.38,0005.03,0003.16,0001.22,0000.49,0000.27,0001.28,0001.50,0001.05,19.0,25.4,02.6,01.8,0667.3,31.1
2021-08-06T22:17:00Z,00000200,00000000,0006.30,0004.92,0003.20,0000.75,0000.54,0000.33,0001.58,0001.14,0000.80,19.0,25.4,02.7,01.8,0667.3,31.0
2021-08-06T22:18:00Z,00000200,00000000,0006.39,0004.67,0002.84,0000.94,0000.76,0000.12,0002.47,0002.75,0002.31,19.0,25.4,02.8,01.9,0667.3,31.1
2021-08-06T22:19:00Z,00000200,00000000,0006.75,0004.84,0002.93,0000.49,0000.39,0000.23,0000.87,0000.14,-000.26,19.0,25.4,02.9,01.9,0667.3,31.1
2021-08-06T22:20:00Z,00000200,00000000,0006.98,0004.85,0003.02,0000.42,0000.67,0000.12,0000.50,0000.85,0000.43,18.9,25.4,02.4,01.6,0667.3,31.0
2021-08-06T22:21:00Z,00000200,00000000,0006.58,0004.93,0002.74,0000.92,0000.66,0000.19,0001.02,0000.92,0000.46,18.9,25.4,02.1,01.4,0667.3,31.0
2021-08-06T22:22:00Z,00000200,00000000,0007.77,0005.07,0003.22,0000.79,0000.79,0000.58,0001.62,0001.35,0001.16,18.9,25.4,02.1,01.4,0667.3,31.0
2021-08-06T22:23:00Z,00000200,00000000,0007.08,0005.77,0003.25,0000.92,0000.71,0000.29,0002.01,0001.36,0001.41,18.9,25.4,02.1,01.4,0667.3,31.0
2021-08-06T22:24:00Z,00000200,00000000,0007.30,0005.86,0003.38,0000.64,0000.50,0000.59,0001.80,0001.76,0000.94,19.0,25.4,02.1,01.4,0667.3,31.1
2021-08-06T22:25:00Z,00000200,00000000,0007.41,0005.91,0003.48,0001.75,0000.64,0000.31,0001.52,0001.57,0001.54,19.0,25.4,02.2,01.5,0667.3,31.1
2021-08-06T22:26:00Z,00000200,00000000,0008.31,0005.69,0003.41,0001.14,0000.59,0000.48,0001.86,0001.59,0001.12,19.0,25.4,02.1,01.4,0667.3,31.1
2021-08-06T22:27:00Z,00000200,00000000,0007.23,0005.22,0003.50,0001.50,0000.53,0000.49,0001.53,0001.88,0001.40,19.0,25.4,02.1,01.4,0667.3,31.0
2021-08-06T22:28:00Z,00000200,00000000,0007.21,0005.63,0002.83,0000.73,0000.63,0000.36,0002.15,0001.55,0001.14,19.0,25.4,02.2,01.5,0667.3,31.0
2021-08-06T22:29:00Z,00000200,00000000,0006.99,0004.61,0002.69,0000.73,0000.44,0000.22,0001.09,0001.53,0000.86,19.0,25.4,02.0,01.4,0667.3,31.0
2021-08-06T22:30:00Z,00000200,00000000,0007.28,0005.11,0002.63,0000.62,0000.58,-000.20,0001.52,0000.60,0001.01,19.0,25.4,02.1,01.4,0667.3,31.0
2021-08-06T22:31:00Z,00000200,00000000,0006.05,0004.86,0002.84,0000.96,0000.67,0000.13,0001.31,0001.63,0001.05,19.0,25.4,02.1,01.4,0667.3,31.0
2021-08-06T22:32:00Z,00000200,01000000,0006.88,0005.32,0002.96,0001.46,0000.70,0000.43,0001.50,0001.50,0001.31,18.9,25.4,02.0,01.4,0667.3,31.0
2021-08-06T22:33:00Z,00000200,00000000,0006.72,0004.90,0002.87,0000.65,0000.36,0000.08,0001.58,0001.58,0000.77,18.9,25.4,02.1,01.4,0667.3,31.0
2021-08-06T22:34:00Z,00000200,00000000,0007.35,0005.40,0003.29,0000.85,0000.84,0000.27,0001.87,0001.38,0001.06,18.9,25.4,02.1,01.4,0667.3,31.0
2021-08-06T22:35:00Z,00000200,01000000,0007.60,0004.92,0002.81,0001.09,0000.99,0000.11,0001.58,0001.31,0001.15,18.9,25.4,02.1,01.4,0667.3,31.0
2021-08-06T22:36:00Z,00000200,00000000,0007.02,0005.39,0003.03,0000.80,0000.78,0000.03,0001.91,0001.41,0001.07,18.9,25.3,02.1,01.4,0667.3,31.0
2021-08-06T22:37:00Z,00000200,00000000,0007.60,0005.51,0002.97,0000.75,0000.72,0000.38,0001.26,0001.36,0000.91,18.9,25.3,02.1,01.4,0667.3,31.0
2021-08-06T22:38:00Z,00000200,00000000,0007.84,0005.36,0003.32,0001.06,0000.58,0000.52,0001.55,0001.76,0001.29,18.8,25.3,02.1,01.4,0667.3,31.0
2021-08-06T22:39:00Z,00000200,00000000,0008.17,0005.34,0003.08,0001.37,0000.58,0000.49,0002.17,0001.30,0001.17,18.8,25.3,02.0,01.4,0667.3,31.0
2021-08-06T22:40:00Z,00000200,00000000,0007.45,0005.16,0002.84,0000.73,0000.40,0000.26,0001.30,0001.41,0001.07,18.8,25.3,02.1,01.4,0667.3,31.0
2021-08-06T22:41:00Z,00000200,00000000,0006.31,0005.14,0003.30,0000.55,0000.41,0000.32,0001.58,0001.80,0000.89,18.8,25.3,02.1,01.4,0667.3,31.0
2021-08-06T22:42:00Z,00000200,00000000,0007.44,0005.25,0003.04,0000.89,0000.60,0000.32,0001.63,0001.30,0001.36,18.8,25.3,02.1,01.4,0667.3,31.0
2021-08-06T22:43:00Z,00000200,00000000,0007.07,0005.35,0003.29,0000.98,0000.34,0000.71,0001.38,0001.41,0001.06,18.8,25.3,02.0,01.4,0667.3,31.0
2021-08-06T22:44:00Z,00000200,00000000,0006.89,0004.98,0003.02,0001.47,0000.48,0000.47,0001.38,0001.66,0001.05,18.8,25.3,02.1,01.4,0667.3,31.0
2021-08-06T22:45:00Z,00000200,00000000,0006.64,0005.16,0002.92,0000.34,0000.50,0000.26,0001.90,0001.42,0001.23,18.8,25.3,02.0,01.3,0667.3,31.0
2021-08-06T22:46:00Z,00000200,00000000,0006.48,0005.37,0002.97,0000.72,0000.69,0000.43,0002.05,0001.77,0001.73,18.8,25.3,02.1,01.4,0667.3,31.0
2021-08-06T22:47:00Z,00000200,00000000,0006.36,0004.89,0002.35,0000.38,0000.25,0000.21,0002.52,0002.46,0002.08,18.7,25.2,02.4,01.6,0667.3,31.0
2021-08-06T22:48:00Z,00000200,00000000,0007.34,0005.08,0002.93,0000.88,0000.61,0000.66,0001.60,0001.62,0001.29,18.7,25.2,02.7,01.8,0667.3,31.0
2021-08-06T22:49:00Z,00000200,00000000,0006.52,0005.00,0002.84,0000.26,0000.46,0000.30,0001.36,0001.10,0000.74,18.7,25.2,02.7,01.8,0667.3,31.0
2021-08-06T22:50:00Z,00000200,00000000,0006.53,0005.22,0003.03,0000.65,0000.55,0000.55,0001.31,0001.15,0000.55,18.7,25.2,02.6,01.7,0667.3,31.0
2021-08-06T22:51:00Z,00000200,00000000,0006.38,0005.04,0003.13,0000.70,0000.91,0000.48,0001.90,0001.51,0001.26,18.7,25.2,02.5,01.7,0667.3,31.0
2021-08-06T22:52:00Z,00000200,00000000,0006.77,0005.19,0002.77,0000.50,0000.57,0000.35,0002.28,0002.49,0002.13,18.7,25.2,02.8,01.9,0667.3,31.0
2021-08-06T22:53:00Z,00000200,00000000,0006.70,0005.43,0002.84,0000.83,0000.52,0000.31,0001.49,0001.14,0000.67,18.7,25.2,02.8,01.9,0667.3,31.0
2021-08-06T22:54:00Z,00000200,00000000,0007.04,0005.56,0002.95,0000.61,0000.65,0000.13,0002.17,0001.85,0002.11,18.7,25.2,02.8,01.9,0667.3,31.0
2021-08-06T22:55:00Z,00000200,00000000,0007.50,0005.33,0002.66,0001.13,0000.54,0000.44,0001.74,0001.75,0001.10,18.8,25.2,02.9,01.9,0667.3,31.0
2021-08-06T22:56:00Z,00000200,00000000,0006.85,0005.15,0002.76,0001.57,0000.47,0000.17,0001.20,0001.16,0000.36,19.0,25.3,02.9,02.0,0667.3,31.1
2021-08-06T22:57:00Z,00000200,40000000,,,,,,,-000.33,-000.03,-000.23,19.1,25.4,03.1,02.1,0667.4,31.1
2021-08-06T22:58:00Z,00000200,60000000,,,,,,,-000.07,-000.34,-000.01,18.8,25.5,02.3,01.5,0666.3,31.1
2021-08-06T22:59:00Z,00000200,20000000,,,,,,,0000.04,0000.18,0000.51,18.8,25.6,02.3,01.5,0666.3,31.0
